Voltar ao catálogo

NAXING 3A

AtivoCiênciaSSO
NORAD 60013·PAYLOAD·🇨🇳 China
Este nome de satélite ainda não foi confirmado por fontes oficiais.

Lançado Jun 6, 2024 de Jiuquan Satellite Launch Center

Loading…

Próximas Passagens (próximas 24 horas)

TLE

AtualizadoSource: Space-Track

Época: Sep 14, 2026, 14:03 UTC

1 60013U 24110B   26257.58563005  .00005475  00000-0  23202-3 0  9995
2 60013  97.5730 354.2837 0009299 301.0515  58.9808 15.23533992125793

Acompanhe NAXING 3A em tempo real com AllMySat

Download on the App Store